This is the latest recevied weather packets stored in our database for station/object KB0RPJ. If no packets are shown the sender has not sent any weather packets the latest 10 day(s).
| Time | Temp. | Humidity | Pressure | Rain* | Wind** | Luminosity | Snow |
|---|---|---|---|---|---|---|---|
| 1778241905 | 10° C | 84% | 1009.3 hPa | 0 mm | - | 33 W/m² | - |
| 1778241604 | 10° C | 83% | 1009.4 hPa | 0 mm | - | 19 W/m² | - |
| 1778241305 | 10° C | 83% | 1009.3 hPa | 0 mm | - | 17 W/m² | - |
| 1778241005 | 10° C | 82% | 1009.3 hPa | 0 mm | - | 14 W/m² | - |
| 1778240715 | 10.56° C | 82% | 1009.2 hPa | 0 mm | - | 12 W/m² | - |
| 1778240405 | 10.56° C | 82% | 1009.1 hPa | 0 mm | - | 18 W/m² | - |
| 1778240105 | 10.56° C | 81% | 1008.9 hPa | 0 mm | - | 13 W/m² | - |
| 1778239805 | 10.56° C | 81% | 1008.9 hPa | 0 mm | - | 8 W/m² | - |
| 1778239505 | 10.56° C | 81% | 1008.8 hPa | 0 mm | - | 6 W/m² | - |
| 1778239222 | 10.56° C | 81% | 1008.6 hPa | 0 mm | - | 5 W/m² | - |
| 1778238918 | 10.56° C | 81% | 1008.7 hPa | 0 mm | - | 3 W/m² | - |
| 1778238607 | 10.56° C | 82% | 1008.6 hPa | 0 mm | - | 2 W/m² | - |
| 1778238305 | 10.56° C | 82% | 1008.6 hPa | 0 mm | - | 1 W/m² | - |
| 1778238008 | 10.56° C | 82% | 1008.8 hPa | 0 mm | - | 0 W/m² | - |
| 1778237706 | 10.56° C | 82% | 1008.9 hPa | 0 mm | - | 0 W/m² | - |
| 1778237408 | 10° C | 82% | 1009 hPa | 0 mm | - | 0 W/m² | - |
| 1778237104 | 10° C | 82% | 1009.1 hPa | 0 mm | - | 0 W/m² | - |
| 1778236805 | 10° C | 82% | 1009.1 hPa | 0 mm | - | 0 W/m² | - |
| 1778236504 | 10° C | 82% | 1009.1 hPa | 0 mm | - | 0 W/m² | - |
| 1778236205 | 10° C | 82% | 1009 hPa | 0 mm | - | 0 W/m² | - |
| 1778235905 | 10° C | 82% | 1009 hPa | 0 mm | - | 0 W/m² | - |
| 1778235606 | 10° C | 82% | 1008.8 hPa | 0 mm | - | 0 W/m² | - |
| 1778235304 | 10° C | 81% | 1009 hPa | 0 mm | - | 0 W/m² | - |
| 1778235005 | 10° C | 81% | 1009.1 hPa | 0 mm | - | 0 W/m² | - |
| 1778234705 | 10° C | 81% | 1009.1 hPa | 0 mm | - | 0 W/m² | - |
* Rain latest hour (hover to see other rain measurements)
** Current wind speed in m/s (hover to see current wind gust speed)